Dewpoint
56 55 55 55 56 56 55 55 55 55 56 56 56 56 56 56 56 56 56 56 57 57 56 56 56 57 57 57 58 58 57 54 52 51 50 51 55 65 65 65 63 66 74 55 45 49 48 54 57 59 59 60 58 57 67 68 68 68 63 60 58 62 59 62 61 61 60 61 63 65 67 65 63 65 66 68 65 66 64 64 59 60 60 59 59 62 65 66
55 55 55 56 56 55 56 55 55 55 56 56 56 55 56 56 55 56 56 56 56 56 56 56 56 57 57 57 58 58 57 55 53 52 50 54 65 67 71 67 67 73 70 43 49 53 48 51 56 60 60 57 56 57 65 66 67 65 63 61 58 62 61 65 63 61 61 61 63 65 67 66 64 65 66 65 64 64 64 58 57 58 59 59 59 59 60 62
55 56 55 55 55 55 55 55 55 55 56 55 56 55 55 55 56 56 56 56 56 56 56 56 56 56 57 57 58 59 56 52 51 50 51 65 64 68 68 70 68 73 50 40 49 55 50 51 56 58 55 49 52 55 62 67 66 67 65 60 61 60 60 62 64 64 66 63 64 64 65 67 65 63 65 64 63 64 61 54 57 58 57 58 59 59 59 59
56 56 55 55 55 55 55 55 55 55 55 55 55 55 55 55 56 56 56 56 56 56 56 56 56 57 57 58 58 57 55 52 48 48 57 72 67 66 70 68 70 70 44 41 45 53 54 52 54 52 47 46 47 57 59 67 66 65 61 60 62 61 58 59 63 66 63 65 63 65 64 64 64 64 66 64 61 62 62 63 57 57 58 58 58 59 59 58
55 55 55 55 55 55 55 55 55 55 55 55 55 55 56 56 56 56 56 56 56 56 56 56 56 57 57 58 58 57 52 47 45 55 64 72 69 66 68 67 69 54 41 38 41 46 53 53 51 44 42 40 43 55 58 63 61 61 60 59 59 60 57 60 60 64 63 63 64 65 62 63 63 66 65 63 60 61 65 61 58 58 58 58 58 59 59 58
55 55 55 55 55 55 55 55 55 55 55 55 55 55 56 55 55 55 55 56 56 55 56 56 57 57 57 58 57 53 46 33 37 45 60 70 68 67 68 67 71 46 36 35 37 41 47 51 49 42 38 38 38 41 55 62 61 60 59 59 59 58 58 59 61 62 62 63 62 62 63 64 65 63 65 65 64 65 64 64 59 59 58 58 59 59 58 58
55 55 55 55 55 54 54 54 54 54 54 55 55 55 55 55 55 55 55 55 55 55 56 56 57 57 57 58 56 52 45 41 40 52 70 68 68 69 70 69 67 48 33 33 36 41 48 50 44 40 38 37 38 41 46 59 59 58 62 58 60 58 59 60 61 62 62 62 62 63 64 65 63 62 64 64 63 64 66 63 58 58 59 59 58 58 58 58
55 55 54 54 55 55 55 55 55 54 55 55 55 55 55 55 55 55 55 55 55 56 57 57 57 57 57 54 49 49 47 43 43 61 67 67 63 64 65 55 54 46 33 32 36 43 48 47 39 38 36 35 36 41 48 58 61 54 59 59 60 56 55 58 63 62 62 61 61 62 63 64 65 64 64 64 63 65 64 60 58 58 58 58 58 58 58 58
54 55 55 55 55 55 55 55 55 55 55 55 55 55 55 55 55 55 55 55 56 56 57 57 57 57 57 55 45 36 35 43 47 57 64 62 55 59 52 47 46 38 34 32 37 44 49 42 37 36 32 34 35 36 46 56 57 55 57 59 58 55 55 60 62 62 61 61 62 63 64 66 67 65 64 65 65 62 64 58 58 57 57 58 58 58 58 57
55 55 55 55 55 55 55 55 55 55 55 55 55 55 55 55 54 54 55 55 56 57 57 58 58 57 55 52 46 37 39 43 46 51 53 52 48 50 45 36 38 33 35 38 42 46 50 44 33 32 31 30 33 34 34 44 52 51 56 55 54 56 56 61 60 60 61 64 66 63 64 65 66 63 62 65 67 66 61 57 57 57 57 57 57 57 57 56
55 55 55 55 55 55 55 55 55 55 55 55 55 55 54 55 55 55 55 55 56 57 58 58 57 56 51 50 44 34 42 39 40 46 46 38 38 36 36 29 30 32 40 45 48 52 52 48 35 29 29 29 28 29 33 35 49 49 53 53 56 57 58 61 61 60 62 62 67 67 65 63 64 64 62 64 63 64 57 56 56 56 57 57 57 57 57 56
55 55 55 55 55 55 55 55 55 55 55 55 55 55 55 55 55 55 55 56 57 58 59 58 58 55 53 47 41 36 40 40 39 36 34 32 30 30 34 29 27 35 44 50 50 49 47 43 37 31 26 29 28 30 33 36 36 46 49 50 55 56 58 59 58 59 61 62 65 65 62 62 62 63 64 62 64 66 59 55 55 55 55 56 56 55 56 55
55 55 55 55 55 55 55 55 55 55 55 55 55 55 55 55 55 55 56 56 57 58 59 58 58 55 52 42 41 41 36 38 37 35 31 32 29 32 35 31 29 33 42 46 43 37 36 35 33 29 29 27 27 32 30 32 36 38 40 42 53 55 60 61 60 59 60 62 63 60 54 57 62 63 64 64 61 62 58 54 54 54 54 54 54 54 55 54
55 55 55 55 55 55 55 55 55 55 55 54 55 55 55 54 55 55 56 57 58 60 60 59 57 54 51 45 41 40 31 35 42 41 30 30 27 28 33 33 29 31 35 40 41 36 29 30 29 28 29 28 27 31 30 29 33 34 37 41 41 48 54 59 60 59 59 61 62 59 55 57 63 63 65 64 65 62 56 54 53 52 52 53 53 53 53 53
56 56 55 55 55 55 55 55 55 54 54 54 54 54 54 54 55 56 57 58 59 60 59 59 56 54 48 36 31 35 64 47 39 38 39 36 32 30 32 36 30 31 35 38 37 33 30 33 29 28 27 32 30 29 29 29 33 35 34 35 37 48 53 57 61 59 58 60 60 59 56 57 59 62 63 62 64 64 54 54 53 52 51 52 52 53 51 53
56 56 55 55 55 55 55 55 55 54 54 54 54 54 54 54 56 57 58 58 60 59 57 54 51 50 39 29 34 51 40 34 36 37 38 41 39 37 37 38 38 36 36 36 39 32 31 34 32 33 28 28 27 27 27 28 30 34 34 37 36 46 49 55 59 64 59 59 56 58 56 58 58 62 64 63 60 61 63 55 53 52 51 51 52 52 51 51
56 56 56 56 55 55 55 55 55 54 54 54 53 54 54 55 57 57 58 59 57 58 53 46 43 46 34 35 38 36 33 30 30 35 37 39 37 33 28 34 33 34 36 34 35 35 34 30 32 30 30 25 25 27 27 27 31 33 34 33 33 45 48 48 53 60 60 56 53 57 56 57 58 62 64 65 65 65 60 63 55 53 52 52 52 53 52 51
55 55 55 56 55 55 55 55 55 55 54 53 53 53 52 55 57 55 55 57 54 53 49 49 44 42 38 39 33 33 35 31 28 33 34 31 34 31 32 32 33 33 32 30 32 29 30 28 26 23 23 23 23 24 26 27 29 32 32 32 33 45 45 48 54 59 58 55 53 54 55 56 58 60 64 64 65 64 64 65 63 61 63 52 52 53 52 51
55 55 55 55 55 55 55 55 54 54 54 53 53 55 55 55 55 49 48 42 46 44 40 36 42 39 19 33 33 29 34 30 29 33 31 31 33 32 31 31 28 25 26 27 27 28 27 25 24 24 18 19 20 22 24 26 28 31 32 31 35 45 44 45 53 55 51 52 54 54 54 56 59 60 62 64 64 62 63 64 64 65 64 64 53 52 51 51
55 56 55 55 55 55 55 55 54 53 53 51 49 51 54 51 46 44 47 46 40 36 35 33 39 38 34 28 26 25 34 26 29 32 32 32 33 34 32 28 26 24 23 21 24 26 25 23 21 18 17 15 17 20 23 25 25 25 22 25 29 42 42 47 51 52 51 51 55 55 56 56 58 59 61 63 62 61 63 63 65 65 66 65 63 53 52 52
55 55 55 55 55 54 55 54 54 53 53 51 48 46 45 38 29 29 35 42 45 42 37 35 34 33 27 25 23 24 25 28 31 32 32 31 30 35 32 29 25 23 23 20 19 24 22 22 20 18 16 15 15 16 19 21 21 21 22 22 21 37 44 46 48 49 50 51 50 54 56 56 57 59 63 63 62 61 63 63 64 66 66 67 64 64 52 53
55 55 55 54 54 54 54 54 53 53 52 51 49 40 39 39 32 32 31 29 31 41 42 40 38 32 31 26 25 31 33 30 30 30 30 29 29 33 29 27 25 23 23 21 20 21 19 19 20 18 17 15 14 14 15 15 17 20 23 23 23 33 48 46 47 50 50 49 51 52 54 55 58 60 63 62 62 63 66 64 63 63 64 66 67 64 65 53
55 55 55 55 54 54 53 53 52 52 49 50 48 40 36 37 32 35 31 30 29 29 29 38 33 25 23 30 29 31 27 27 25 28 29 28 30 31 27 25 25 24 21 19 17 19 18 18 19 19 17 15 13 14 15 15 15 18 20 22 24 42 45 43 42 47 48 46 50 51 52 54 58 62 61 63 64 64 66 67 66 65 65 66 66 64 64 56
55 55 55 54 54 53 53 52 51 51 50 44 42 38 39 38 32 33 31 28 27 27 25 27 29 22 20 23 28 29 27 24 22 23 33 28 26 28 27 25 24 23 20 18 16 15 17 17 18 18 18 15 15 16 16 16 15 17 19 23 26 31 34 32 43 42 44 44 50 49 52 54 58 57 59 62 64 65 66 66 66 67 67 68 68 67 66 64
55 55 55 55 54 53 52 51 47 46 45 45 41 39 38 40 39 31 27 28 26 24 27 25 25 20 21 24 31 25 23 20 17 22 31 26 24 25 25 28 25 21 20 19 16 14 14 16 17 17 16 15 16 16 16 18 22 20 20 24 29 34 36 33 36 45 43 53 53 48 46 49 54 55 57 60 61 62 64 66 64 67 67 66 67 65 65 65
55 55 55 54 54 53 51 50 47 42 39 36 40 41 39 34 40 40 33 29 23 25 22 17 18 15 18 16 23 25 24 18 17 20 31 27 32 26 25 25 24 20 20 18 15 14 13 14 16 16 15 14 14 15 16 23 25 23 23 27 31 34 34 33 30 35 40 40 45 45 42 47 55 52 57 57 59 60 62 63 62 65 66 65 65 65 64 65
54 54 54 54 53 52 48 37 49 46 38 29 32 32 31 33 50 36 32 25 20 19 15 13 12 17 16 13 17 17 13 12 15 22 30 31 25 29 23 19 22 20 19 21 25 16 14 13 14 15 14 12 12 14 15 21 26 27 30 30 33 33 32 32 34 32 33 33 43 42 47 48 48 52 56 58 60 60 61 62 62 64 64 64 65 65 65 64
55 54 53 53 52 52 49 50 46 41 39 34 32 30 30 50 46 40 36 29 20 24 13 16 12 20 16 15 16 12 13 18 12 23 27 24 25 22 22 20 16 18 18 19 19 24 14 13 14 14 13 11 11 14 16 30 30 30 29 31 33 33 34 30 31 30 28 33 42 43 47 45 46 50 57 58 58 58 59 62 61 62 62 62 64 64 64 63
54 53 53 52 52 51 51 49 48 44 41 38 33 34 33 47 37 34 31 24 19 18 18 11 16 17 14 15 15 15 11 11 11 22 23 20 19 20 19 19 15 12 11 12 18 19 18 18 15 15 14 11 11 14 18 31 30 31 31 27 24 29 31 30 29 28 31 29 38 41 43 42 45 53 54 55 55 56 57 60 62 62 61 62 62 63 64 65
53 53 53 52 50 51 50 51 49 47 45 44 36 38 34 36 34 32 26 20 14 11 14 10 12 11 11 12 13 13 12 14 14 22 22 18 15 17 17 16 12 13 14 13 13 18 21 33 31 16 14 20 29 27 23 26 29 27 26 25 27 26 26 25 32 38 34 32 33 41 47 44 44 51 54 53 53 56 55 57 60 62 61 62 63 64 65 63
52 52 51 51 49 49 44 39 42 44 45 46 43 36 37 41 35 30 20 17 14 12 12 11 9 11 9 10 9 10 11 10 9 15 12 15 14 16 15 11 17 12 15 15 13 17 20 21 22 22 24 23 29 29 28 28 26 23 24 25 29 28 30 34 37 38 35 31 30 27 37 42 43 46 51 52 54 55 56 56 58 59 60 62 64 64 63 65
51 50 51 51 50 50 41 35 38 40 42 39 37 37 38 33 32 30 16 16 11 10 9 8 10 10 10 10 8 9 10 7 10 9 9 11 15 11 11 13 20 23 16 17 18 18 17 19 22 30 38 29 27 26 25 25 29 26 25 27 31 32 28 29 28 29 30 31 34 29 44 45 46 46 50 57 54 54 57 57 58 58 59 62 62 63 63 63
50 50 50 51 51 49 46 43 43 44 45 40 40 38 37 33 31 22 22 14 13 13 6 11 9 9 9 7 6 8 10 8 12 15 16 12 12 11 9 9 13 14 23 24 14 15 18 20 19 26 29 32 32 25 24 22 24 25 27 33 29 29 25 26 27 29 29 27 35 38 47 47 51 50 53 54 56 58 55 56 58 58 60 60 60 62 63 64
50 50 50 51 50 49 45 49 45 45 43 42 45 35 38 30 25 27 11 13 6 8 7 4 6 12 8 6 6 7 7 9 12 11 12 13 10 10 6 6 7 10 11 16 12 15 19 19 18 23 22 30 28 26 27 24 26 27 29 27 30 30 28 26 26 25 25 28 26 42 44 46 46 49 52 54 55 56 57 57 58 58 60 61 60 62 63 66
50 50 51 51 50 48 47 46 46 45 44 40 37 34 29 29 25 14 12 11 6 4 4 3 3 5 6 6 6 6 7 7 8 10 9 9 8 10 7 5 6 6 9 11 25 26 16 17 25 24 30 24 24 26 27 25 25 27 29 32 27 26 29 23 24 23 25 24 26 37 49 49 50 51 54 57 55 54 56 57 58 58 60 61 62 64 65 66
50 52 54 51 47 47 48 47 46 45 41 38 35 34 28 25 22 13 10 11 9 7 5 6 2 3 6 5 6 4 4 12 4 4 8 7 8 8 8 7 5 7 14 19 31 23 19 13 23 24 24 24 24 26 25 26 24 26 25 25 24 26 25 29 30 22 27 27 39 46 45 46 49 53 55 56 53 54 55 56 57 59 61 63 63 64 65 66
46 44 39 39 40 41 44 47 47 45 45 38 41 35 20 17 13 12 16 8 8 7 7 9 13 11 9 5 7 -1 7 3 2 4 12 6 5 14 12 13 15 9 14 19 20 21 20 16 14 20 17 17 20 24 25 25 26 24 24 24 21 24 26 30 25 34 27 20 39 43 43 44 45 45 54 54 52 54 55 55 56 58 59 61 62 64 65 65
49 45 41 39 39 38 40 47 42 44 38 36 35 31 26 13 12 11 10 9 7 11 11 9 10 9 5 7 4 6 5 4 7 4 7 4 19 14 12 12 13 14 17 18 21 18 17 17 13 15 19 17 22 18 18 24 26 18 19 24 20 26 21 34 28 21 23 28 40 44 45 44 47 46 49 47 50 52 52 53 54 55 57 60 62 63 65 65
51 46 36 36 33 26 31 40 39 38 36 37 36 31 20 16 13 10 9 10 10 11 15 14 18 13 9 10 11 8 8 6 9 9 13 19 18 17 12 13 13 15 15 16 17 20 21 17 18 15 13 16 18 18 21 22 23 23 15 14 19 21 31 29 32 29 28 38 40 43 42 43 51 52 51 47 49 50 52 53 53 54 56 59 62 62 64 65
47 43 39 39 33 31 49 38 32 40 35 30 31 26 16 16 14 12 12 13 10 17 20 15 12 13 12 10 10 10 16 9 8 8 9 11 13 15 13 15 13 14 14 16 15 17 20 29 21 12 15 14 16 19 17 18 20 15 15 15 17 28 20 20 22 19 26 40 41 38 38 44 51 54 55 55 52 52 53 53 54 55 55 56 57 57 59 61
40 40 40 39 35 34 32 34 33 30 33 30 24 18 13 15 15 16 15 11 12 17 12 15 15 16 15 14 13 14 14 10 9 18 12 12 14 21 16 15 15 12 14 15 17 19 22 30 23 21 21 12 13 15 16 15 16 15 13 15 15 18 19 17 20 17 18 39 37 37 39 44 53 52 53 56 52 53 53 54 54 55 55 56 57 58 58 60
49 39 34 33 35 38 36 30 27 31 31 27 22 16 18 24 16 13 15 12 15 16 13 17 19 18 17 16 16 15 14 15 21 15 15 15 15 16 16 17 17 13 13 21 21 22 32 30 29 21 16 16 12 14 15 14 13 11 15 12 15 15 20 21 18 29 41 41 41 41 41 44 52 57 52 52 52 52 53 53 54 55 55 56 57 57 58 59
42 39 41 31 30 26 32 33 36 40 26 16 12 16 15 17 18 17 17 15 16 15 22 16 16 18 17 19 14 14 14 16 19 18 16 18 19 17 16 17 17 19 20 22 24 26 40 27 32 26 27 19 13 13 15 14 17 14 14 14 12 11 14 25 29 36 41 45 40 42 41 46 56 54 56 53 51 51 52 54 54 54 55 55 56 59 58 58
44 43 34 32 42 34 31 34 37 33 30 19 16 16 17 14 18 18 19 17 18 17 18 17 17 18 18 18 21 22 21 22 20 18 22 19 20 18 17 16 17 19 19 21 29 27 22 30 35 25 24 22 19 21 22 17 15 17 13 13 13 14 19 19 24 34 38 43 43 42 40 45 53 54 54 48 50 51 52 53 54 53 54 54 55 56 57 58
47 47 38 29 34 27 25 23 34 31 22 16 18 14 15 18 19 19 19 18 18 16 21 21 14 12 15 19 19 19 18 16 24 23 17 18 21 22 15 15 18 17 19 30 51 38 31 31 36 25 24 21 22 20 20 22 17 15 15 14 13 20 17 25 25 35 34 44 44 42 44 46 46 48 48 51 52 53 51 52 52 52 54 54 55 54 56 57
45 41 31 36 31 23 37 26 23 17 34 31 28 18 16 15 16 17 18 18 18 18 18 17 17 16 23 16 18 19 17 17 24 31 27 24 22 24 14 16 16 15 35 46 51 24 34 32 40 36 31 28 30 34 33 31 19 14 13 13 12 16 15 25 34 37 37 44 43 44 44 46 47 45 46 46 46 48 49 51 51 52 53 53 53 54 55 56
51 45 34 36 31 30 27 23 22 19 28 22 38 17 18 14 18 17 19 21 18 18 19 23 20 19 24 21 24 25 28 19 22 21 20 20 17 17 24 11 16 25 48 46 23 21 32 33 39 37 35 30 20 24 13 19 15 13 12 10 15 16 17 20 26 35 44 43 41 46 45 42 42 43 44 44 44 44 45 47 50 51 52 52 53 54 57 55
38 33 30 43 27 31 36 24 20 22 19 19 30 12 18 19 13 18 21 22 18 20 24 39 22 19 20 24 27 33 31 30 31 29 31 25 24 19 18 19 14 22 35 17 26 29 34 29 21 21 19 23 22 17 14 13 11 12 12 11 13 23 17 20 32 30 40 40 42 46 45 43 42 43 44 44 45 45 45 45 46 49 52 52 52 52 52 53
43 41 39 40 39 24 25 22 18 21 20 23 34 18 20 21 18 14 17 23 21 21 22 32 24 22 20 27 36 40 41 33 32 38 38 33 26 28 27 23 18 13 16 22 24 34 30 29 27 19 21 19 19 18 14 11 11 12 12 12 12 11 11 22 24 29 45 46 46 46 45 43 43 43 44 44 45 45 45 46 46 47 47 49 49 50 50 51
44 44 43 45 44 34 41 24 23 29 31 39 43 27 22 17 18 18 18 21 25 24 22 20 22 22 23 27 38 35 37 36 35 40 39 34 31 30 27 28 27 23 17 22 23 37 26 33 26 21 24 22 19 15 15 12 13 12 11 10 10 10 9 11 19 45 47 45 46 45 45 46 50 47 46 47 45 45 46 46 47 47 48 48 48 49 50 51
44 50 52 48 44 31 29 26 35 41 41 30 30 29 24 19 18 21 21 18 19 22 26 23 22 26 25 29 31 29 30 39 40 34 32 27 38 27 34 36 25 27 27 28 27 37 27 30 22 27 26 24 19 16 14 15 13 12 17 13 15 15 17 18 27 46 45 45 46 45 44 44 45 46 45 45 46 45 45 46 49 48 49 50 50 50 51 51
47 50 54 52 47 48 37 36 34 32 32 34 29 20 26 22 26 29 34 23 16 17 19 21 24 28 34 31 35 32 31 30 28 28 28 26 25 24 26 29 28 29 29 31 34 31 32 30 27 28 25 27 19 18 15 13 18 20 15 11 14 22 23 10 16 40 46 46 44 43 44 45 46 46 44 45 46 45 45 44 46 48 49 48 48 48 49 51